Vertical_Velocity
-2 4 5 6 -2 3 2 2 0 0 -1 1 -1 -2 -1 -1 -3 -3 -2 -1 -0 -1
-1 -3 -0 0 3 4 1 1 0 -0 -0 0 -1 -1 -1 -2 -4 -3 -2 -1 -1 -1
2 5 5 3 1 -3 -2 -0 -2 -1 0 -1 -0 -1 -2 -2 -3 -2 -1 -1 -0 0
3 -1 4 2 3 0 -0 2 1 0 -0 -1 -1 -1 -2 -2 -1 -1 -0 1 -1 -2
6 4 0 1 1 0 0 0 -1 -1 -1 -1 -1 -2 -3 -1 -1 -0 0 0 -2 -3
-0 -0 -0 2 3 1 1 1 1 -0 -0 -2 -2 -2 -3 -2 0 0 0 -1 -1 0
3 -1 2 5 3 1 -0 0 -0 0 -1 -2 -2 -3 -2 -2 -2 1 -1 -0 1 1
2 0 4 4 0 1 -0 0 0 -1 -1 -3 -1 -3 -1 -2 0 -1 -0 1 1 1
-2 0 4 1 -2 -0 0 -0 -1 -2 -3 -1 -1 -1 -2 -1 -2 -1 0 -1 -1 -0
0 2 -1 4 -3 0 0 -1 -2 -2 -0 -1 -2 -0 -2 -2 0 0 -0 -1 -2 -3
-1 -0 -4 -0 -2 0 0 -2 -2 -1 -2 -1 -3 -1 -1 -0 0 -1 -2 0 1 0
-2 0 -1 -2 0 -0 -3 -2 -1 -1 -1 -4 1 -3 1 -1 -3 -2 -1 2 1 1
-1 -3 -1 1 -0 -3 -1 -1 -0 -4 -3 -1 1 -1 -2 -4 -1 0 0 -1 -2 0
-1 -0 0 -2 -2 -1 -0 -3 -4 -1 -1 -1 -3 -1 -2 -1 -2 -0 -3 -3 -3 -2
Height
1439 1445 1451 1457 1463 1469 1474 1479 1484 1488 1490 1492 1493 1493 1493 1491 1491 1491 1490 1488 1486 1484
1435 1442 1448 1455 1461 1467 1472 1477 1482 1486 1488 1489 1490 1490 1490 1489 1488 1488 1487 1485 1483 1481
1434 1441 1448 1453 1458 1465 1471 1475 1480 1483 1485 1487 1488 1487 1487 1486 1485 1485 1483 1481 1479 1477
1433 1439 1446 1451 1457 1462 1469 1474 1477 1480 1482 1484 1484 1484 1484 1484 1483 1481 1479 1477 1474 1472
1431 1438 1444 1450 1456 1461 1467 1471 1475 1477 1479 1480 1481 1481 1481 1481 1480 1477 1475 1472 1470 1467
1430 1437 1443 1449 1455 1460 1465 1469 1472 1474 1476 1477 1478 1478 1478 1477 1476 1473 1471 1468 1465 1462
1429 1437 1443 1449 1453 1459 1464 1467 1470 1472 1473 1474 1474 1474 1474 1473 1471 1469 1466 1463 1460 1457
1431 1437 1443 1448 1454 1459 1462 1466 1468 1470 1471 1471 1471 1470 1470 1468 1467 1464 1461 1458 1455 1453
1431 1439 1445 1449 1455 1459 1462 1464 1466 1468 1468 1468 1467 1467 1465 1464 1461 1458 1456 1453 1450 1447
1433 1440 1445 1450 1455 1459 1461 1463 1465 1465 1465 1465 1463 1462 1461 1459 1456 1453 1451 1448 1445 1442
1435 1441 1446 1451 1456 1459 1460 1461 1463 1462 1462 1461 1459 1458 1456 1454 1451 1449 1446 1444 1441 1438
1436 1442 1448 1453 1456 1457 1458 1460 1460 1460 1459 1457 1456 1453 1451 1449 1446 1444 1442 1440 1437 1434
1439 1445 1449 1452 1454 1456 1457 1457 1457 1456 1455 1454 1452 1449 1447 1444 1441 1439 1437 1435 1432 1430
1442 1446 1449 1451 1453 1454 1455 1455 1455 1453 1452 1450 1448 1446 1442 1439 1437 1436 1433 1430 1427 1424